GW7085 Weather Reports


Display with metric or nautical units.
time (UTC)temp
F
wind
direction
speed
MPH
gust
MPH
rain 1hr
in
rain 24hr
in
rain mn
in
humidity
%
barometer
mb
20260508135434 66 61 0.0 1.0 0.00 0.00 0.00 46 1019.0
20260508134930 66 48 1.0 1.0 0.00 0.00 0.00 42 1018.7
20260508134427 66 113 0.0 1.0 0.00 0.00 0.00 44 1018.6
20260508133924 66 80 0.0 0.0 0.00 0.00 0.00 46 1018.6
20260508133421 66 72 1.0 1.0 0.00 0.00 0.00 51 1018.6
20260508132918 64 28 0.0 1.0 0.00 0.00 0.00 48 1018.5
20260508132416 64 66 0.0 1.0 0.00 0.00 0.00 50 1018.6
20260508131913 64 70 0.0 1.0 0.00 0.00 0.00 50 1018.7
20260508131408 64 87 1.0 2.0 0.00 0.00 0.00 49 1018.4
20260508130905 63 66 0.0 1.0 0.00 0.00 0.00 53 1018.5
20260508130402 62 74 1.0 1.0 0.00 0.00 0.00 53 1018.5
20260508125857 61 56 1.0 3.0 0.00 0.00 0.00 54 1018.5
20260508125354 60 109 0.0 2.0 0.00 0.00 0.00 55 1018.4
20260508124852 60 78 0.0 1.0 0.00 0.00 0.00 60 1018.5
20260508124349 60 38 1.0 2.0 0.00 0.00 0.00 57 1018.0
20260508123847 60 102 0.0 2.0 0.00 0.00 0.00 60 1018.0
20260508123345 60 50 1.0 3.0 0.00 0.00 0.00 60 1018.1
20260508122841 59 124 2.0 2.0 0.00 0.00 0.00 64 1018.1
20260508122338 58 118 0.0 1.0 0.00 0.00 0.00 68 1018.0
20260508121835 58 83 0.0 1.0 0.00 0.00 0.00 68 1018.0
20260508121334 57 71 0.0 0.0 0.00 0.00 0.00 73 1018.1
20260508120831 55 117 0.0 1.0 0.00 0.00 0.00 75 1018.1
20260508120329 55 96 0.0 1.0 0.00 0.00 0.00 76 1018.1
20260508115826 55 110 0.0 1.0 0.00 0.00 0.00 78 1017.9
20260508115324 54 106 0.0 1.0 0.00 0.00 0.00 81 1017.9
20260508114820 53 105 0.0 0.0 0.00 0.00 0.00 86 1017.8
20260508114317 52 106 0.0 0.0 0.00 0.00 0.00 87 1017.6
20260508113813 52 106 0.0 0.0 0.00 0.00 0.00 90 1017.5
20260508113312 52 106 0.0 0.0 0.00 0.00 0.00 90 1017.4
20260508112808 51 106 0.0 0.0 0.00 0.00 0.00 92 1017.4
20260508112307 51 106 0.0 0.0 0.00 0.00 0.00 95 1017.3
20260508111801 50 106 0.0 0.0 0.00 0.00 0.00 95 1017.1
20260508111259 50 106 0.0 0.0 0.00 0.00 0.00 95 1017.2
20260508110756 50 106 0.0 0.0 0.00 0.00 0.00 95 1017.1
20260508110253 49 106 1.0 2.0 0.00 0.00 0.00 96 1016.9
20260508105753 49 75 0.0 0.0 0.00 0.00 0.00 96 1016.8
20260508105250 49 75 0.0 0.0 0.00 0.00 0.00 96 1016.8
20260508104747 49 75 0.0 0.0 0.00 0.00 0.00 96 1016.7
20260508104244 49 75 0.0 0.0 0.00 0.00 0.00 96 1016.7
20260508103742 49 75 0.0 0.0 0.00 0.00 0.00 96 1016.5
20260508103238 50 75 0.0 0.0 0.00 0.00 0.00 96 1016.1
20260508102735 50 75 0.0 1.0 0.00 0.00 0.00 96 1016.2
20260508102233 50 76 0.0 0.0 0.00 0.00 0.00 96 1016.2
20260508101730 50 76 0.0 0.0 0.00 0.00 0.00 96 1016.1
20260508101228 50 76 0.0 0.0 0.00 0.00 0.00 96 1016.1
20260508100726 50 76 0.0 0.0 0.00 0.00 0.00 97 1016.1
20260508100224 50 76 0.0 0.0 0.00 0.00 0.00 97 1015.9
20260508095719 50 74 0.0 0.0 0.00 0.00 0.00 97 1015.8
20260508095217 50 74 0.0 0.0 0.00 0.00 0.00 97 1015.9
20260508094713 51 74 0.0 0.0 0.00 0.00 0.00 97 1015.9
20260508094210 51 74 0.0 0.0 0.00 0.00 0.00 97 1015.8
20260508093707 51 74 0.0 0.0 0.00 0.00 0.00 97 1015.8
20260508093205 51 74 0.0 0.0 0.00 0.00 0.00 97 1015.9
20260508092702 51 74 0.0 0.0 0.00 0.00 0.00 97 1015.6
20260508092201 51 74 0.0 0.0 0.00 0.00 0.00 97 1015.6
20260508091658 51 74 0.0 0.0 0.00 0.00 0.00 96 1015.7
20260508091155 51 74 0.0 0.0 0.00 0.00 0.00 97 1015.6
20260508090652 51 74 0.0 0.0 0.00 0.00 0.00 97 1015.5
20260508090150 51 74 0.0 0.0 0.00 0.00 0.00 97 1015.6
20260508085645 51 74 0.0 0.0 0.00 0.00 0.00 97 1015.6
20260508085143 52 74 0.0 0.0 0.00 0.00 0.00 96 1015.6
20260508084639 52 74 0.0 0.0 0.00 0.00 0.00 96 1015.6
20260508084136 52 74 0.0 0.0 0.00 0.00 0.00 97 1015.4
20260508083634 52 74 0.0 0.0 0.00 0.00 0.00 97 1015.4
20260508083131 52 74 0.0 0.0 0.00 0.00 0.00 96 1015.3
20260508082626 52 74 0.0 1.0 0.00 0.00 0.00 96 1015.3
20260508082124 52 74 0.0 0.0 0.00 0.00 0.00 96 1015.3
20260508081621 52 74 0.0 0.0 0.00 0.00 0.00 96 1015.5
20260508081117 52 74 0.0 0.0 0.00 0.00 0.00 96 1015.3
20260508080615 53 74 0.0 0.0 0.00 0.00 0.00 96 1015.2
20260508080113 53 74 0.0 0.0 0.00 0.00 0.00 96 1015.2
20260508075609 53 74 0.0 0.0 0.00 0.00 0.00 96 1015.0
20260508075106 53 74 0.0 0.0 0.00 0.00 0.00 96 1015.0
20260508074604 53 74 0.0 0.0 0.00 0.00 0.00 96 1015.0
20260508074101 53 74 0.0 0.0 0.00 0.00 0.00 96 1014.9
20260508073558 53 74 0.0 0.0 0.00 0.00 0.00 96 1014.8
20260508073056 53 74 0.0 0.0 0.00 0.00 0.00 96 1014.8
20260508072551 53 74 0.0 0.0 0.00 0.00 0.00 96 1014.9
20260508072048 53 74 0.0 0.0 0.00 0.00 0.00 96 1014.8
20260508071546 53 74 0.0 0.0 0.00 0.00 0.00 96 1014.9
20260508071044 53 74 0.0 0.0 0.00 0.00 0.00 96 1014.9
20260508070541 53 74 0.0 0.0 0.00 0.00 0.00 96 1014.8
20260508070040 53 74 0.0 0.0 0.00 0.00 0.00 96 1014.7
20260508065537 53 74 0.0 0.0 0.00 0.00 0.00 96 1014.9
20260508065035 53 74 0.0 0.0 0.00 0.00 0.00 96 1014.8
20260508064532 53 74 0.0 0.0 0.00 0.00 0.00 96 1014.7
20260508064030 53 74 0.0 0.0 0.00 0.00 0.00 96 1014.6
20260508063527 53 74 0.0 0.0 0.00 0.00 0.00 96 1014.8
20260508063025 54 74 0.0 0.0 0.00 0.00 0.00 96 1014.9
20260508062522 54 74 0.0 0.0 0.00 0.00 0.00 96 1014.9
20260508062018 54 74 0.0 0.0 0.00 0.00 0.00 96 1014.7
20260508061517 54 74 0.0 0.0 0.00 0.00 0.00 96 1014.7
20260508061013 54 74 0.0 0.0 0.00 0.00 0.00 96 1014.9
20260508060510 54 74 0.0 0.0 0.00 0.00 0.00 96 1014.8
20260508060008 54 74 0.0 0.0 0.00 0.00 0.00 96 1014.8
20260508055503 54 74 0.0 0.0 0.00 0.00 0.00 96 1015.0
20260508055000 54 74 0.0 0.0 0.00 0.00 0.00 96 1014.9
20260508054457 55 74 0.0 0.0 0.00 0.00 0.00 95 1014.7
20260508053953 55 74 0.0 0.0 0.00 0.00 0.00 96 1014.9
20260508053450 55 74 0.0 0.0 0.00 0.00 0.00 95 1015.0
20260508052948 55 74 0.0 0.0 0.00 0.00 0.00 95 1014.7
20260508052446 55 74 0.0 0.0 0.00 0.00 0.00 95 1014.9
20260508051942 55 74 0.0 0.0 0.00 0.00 0.00 95 1014.8
20260508051437 55 74 0.0 0.0 0.00 0.00 0.00 95 1014.9
20260508050934 55 74 0.0 0.0 0.00 0.00 0.00 95 1014.8
20260508050431 55 74 0.0 0.0 0.00 0.00 0.00 95 1014.8
20260508045927 55 74 0.0 0.0 0.00 0.00 0.00 95 1014.6
20260508045425 55 74 0.0 0.0 0.00 0.00 0.00 95 1014.6
20260508044922 55 74 0.0 0.0 0.00 0.00 0.00 95 1014.7
20260508044419 56 74 0.0 0.0 0.00 0.00 0.00 95 1014.6
20260508043914 56 74 0.0 0.0 0.00 0.00 0.00 95 1014.5
20260508043412 56 74 0.0 0.0 0.00 0.00 0.00 94 1014.4
20260508042908 56 74 0.0 0.0 0.00 0.00 0.00 94 1014.3
20260508042406 56 74 0.0 0.0 0.00 0.00 0.00 94 1014.2
20260508041903 56 74 0.0 0.0 0.00 0.00 0.00 94 1014.1
20260508041359 56 74 0.0 0.0 0.00 0.00 0.00 94 1014.3
20260508040855 56 74 0.0 0.0 0.00 0.00 0.00 94 1014.2
20260508040353 56 74 0.0 0.0 0.00 0.00 0.00 94 1014.2
20260508035851 56 74 0.0 0.0 0.00 1.35 1.35 93 1014.2
20260508035348 56 74 0.0 0.0 0.00 1.35 1.35 93 1014.2
20260508034844 57 74 0.0 0.0 0.00 1.35 1.35 93 1014.4
20260508034342 57 74 0.0 0.0 0.00 1.35 1.35 93 1014.3
20260508033838 57 74 0.0 0.0 0.00 1.35 1.35 93 1014.0
20260508033336 57 74 0.0 0.0 0.00 1.35 1.35 92 1014.0
20260508032833 57 74 0.0 0.0 0.00 1.35 1.35 92 1014.0
20260508032331 57 74 0.0 0.0 0.00 1.35 1.35 92 1014.1
20260508031827 58 44 0.0 0.0 0.00 1.35 1.35 92 1014.1
20260508031324 58 44 0.0 0.0 0.00 1.35 1.35 92 1014.2
20260508030821 58 44 0.0 0.0 0.00 1.35 1.35 92 1013.8
20260508030318 58 44 0.0 0.0 0.00 1.35 1.35 91 1014.1
20260508025814 58 44 0.0 1.0 0.00 1.35 1.35 91 1014.1
20260508025312 58 75 0.0 0.0 0.00 1.35 1.35 91 1014.1
20260508024808 58 75 0.0 0.0 0.00 1.35 1.35 92 1013.9
20260508024305 58 74 0.0 1.0 0.00 1.35 1.35 92 1014.0
20260508023802 58 83 0.0 0.0 0.00 1.35 1.35 92 1014.1
20260508023258 58 83 0.0 0.0 0.00 1.35 1.35 92 1013.8
20260508022754 58 83 0.0 0.0 0.00 1.35 1.35 92 1013.7
20260508022251 58 83 0.0 0.0 0.00 1.35 1.35 92 1013.8
20260508021748 58 83 0.0 0.0 0.00 1.35 1.35 92 1013.6
20260508021243 58 83 0.0 0.0 0.00 1.35 1.35 91 1013.6
20260508020741 58 61 0.0 0.0 0.00 1.35 1.35 91 1013.3
20260508020238 58 58 0.0 1.0 0.00 1.35 1.35 91 1013.2
20260508015735 59 48 0.0 0.0 0.00 1.35 1.35 91 1013.5
20260508015232 59 57 0.0 0.0 0.00 1.35 1.35 90 1013.1
20260508014729 59 42 0.0 0.0 0.00 1.35 1.35 91 1013.2
20260508014226 59 42 0.0 2.0 0.00 1.35 1.35 91 1013.2
20260508013721 59 113 1.0 1.0 0.00 1.35 1.35 91 1012.8
20260508013218 59 75 0.0 0.0 0.00 1.35 1.35 91 1012.7
20260508012716 59 102 0.0 0.0 0.00 1.35 1.35 91 1012.8
20260508012213 59 108 0.0 1.0 0.00 1.35 1.35 91 1012.6
20260508011711 59 104 0.0 0.0 0.00 1.35 1.35 91 1012.6
20260508011208 59 121 0.0 1.0 0.00 1.35 1.35 91 1012.6
20260508010705 59 113 1.0 2.0 0.00 1.35 1.35 91 1012.7
20260508010203 59 86 0.0 1.0 0.00 1.35 1.35 91 1012.5
20260508005700 59 107 0.0 0.0 0.00 1.35 1.35 91 1012.6
20260508005156 59 108 0.0 1.0 0.00 1.35 1.35 91 1012.5
20260508004652 59 62 0.0 0.0 0.00 1.35 1.35 91 1012.3
20260508004148 59 97 0.0 1.0 0.00 1.35 1.35 90 1012.3
20260508003645 59 87 0.0 1.0 0.00 1.35 1.35 91 1011.9
20260508003143 59 85 0.0 1.0 0.00 1.35 1.35 90 1011.8
20260508002639 59 110 2.0 3.0 0.00 1.35 1.35 90 1011.9
20260508002137 59 129 1.0 2.0 0.00 1.35 1.35 90 1011.4
20260508001631 59 142 0.0 1.0 0.00 1.35 1.35 90 1011.3
20260508001128 59 338 1.0 2.0 0.00 1.35 1.35 90 1011.2
20260508000624 59 137 0.0 1.0 0.00 1.35 1.35 89 1010.7
20260508000122 59 44 2.0 3.0 0.00 1.35 1.35 89 1010.8
20260507235618 60 40 1.0 3.0 0.00 1.35 1.35 90 1010.9
20260507235116 60 131 0.0 0.0 0.00 1.35 1.35 90 1010.4
20260507234612 60 35 0.0 1.0 0.00 1.35 1.35 90 1010.6
20260507234108 60 103 0.0 2.0 0.00 1.35 1.35 90 1010.6
20260507233605 60 112 0.0 1.0 0.00 1.35 1.35 90 1010.5
20260507233104 60 85 2.0 6.0 0.05 1.35 1.35 91 1010.2
20260507232600 60 115 2.0 4.0 0.05 1.35 1.35 90 1010.1
20260507232058 60 57 2.0 2.0 0.19 1.34 1.34 89 1010.4
20260507231553 60 349 3.0 4.0 0.54 1.34 1.34 87 1010.5
20260507231051 61 153 1.0 3.0 0.35 1.31 1.31 85 1009.8
20260507230547 62 8 2.0 7.0 0.00 1.25 1.25 82 1010.0
20260507230044 62 122 0.0 4.0 0.00 1.25 1.25 80 1009.5
20260507225539 63 13 2.0 4.0 0.00 1.25 1.25 80 1009.3
20260507225036 63 44 1.0 9.0 0.00 1.25 1.25 78 1009.4
20260507224531 64 42 2.0 8.0 0.00 1.25 1.25 78 1009.0
20260507224028 64 29 0.0 4.0 0.00 1.25 1.25 79 1009.1
20260507223524 64 54 0.0 2.0 0.00 1.25 1.25 78 1008.9
20260507223022 65 54 2.0 7.0 0.00 1.25 1.25 78 1009.1
20260507222519 66 329 2.0 9.0 0.00 1.25 1.25 78 1008.9
20260507222015 67 100 2.0 6.0 0.00 1.25 1.25 77 1008.8
20260507221512 68 13 1.0 3.0 0.00 1.25 1.25 75 1008.7
20260507221008 71 58 1.0 15.0 0.00 1.25 1.25 70 1008.6
20260507220506 77 350 3.0 10.0 0.00 1.25 1.25 60 1008.4
20260507220003 77 288 3.0 4.0 0.00 1.25 1.25 61 1007.9
20260507215458 77 316 0.0 3.0 0.00 1.25 1.25 63 1007.6
20260507214957 76 206 0.0 1.0 0.00 1.25 1.25 62 1007.5
20260507214454 76 225 0.0 2.0 0.00 1.25 1.25 64 1007.6
20260507213949 77 281 0.0 2.0 0.00 1.25 1.25 63 1007.5
20260507213446 77 107 0.0 2.0 0.00 1.25 1.25 62 1007.4
20260507212943 77 128 1.0 2.0 0.00 1.25 1.25 63 1007.3
20260507212438 77 103 1.0 2.0 0.00 1.25 1.25 62 1007.1
20260507211936 77 262 1.0 2.0 0.00 1.25 1.25 61 1007.2
20260507211432 78 186 2.0 3.0 0.00 1.25 1.25 59 1007.4
20260507210929 77 256 1.0 1.0 0.00 1.25 1.25 60 1007.1
20260507210426 78 271 1.0 3.0 0.00 1.25 1.25 59 1007.0
20260507205923 77 138 0.0 2.0 0.00 1.25 1.25 59 1007.2
20260507205420 78 147 1.0 1.0 0.00 1.25 1.25 60 1007.2
20260507204916 78 300 3.0 4.0 0.00 1.25 1.25 61 1007.5
20260507204412 78 341 0.0 1.0 0.00 1.25 1.25 60 1007.4
20260507203910 78 340 1.0 2.0 0.00 1.25 1.25 59 1007.4
20260507203408 78 108 1.0 1.0 0.00 1.25 1.25 59 1007.5
20260507202904 77 224 1.0 2.0 0.00 1.25 1.25 61 1007.6
20260507202401 77 200 1.0 2.0 0.00 1.25 1.25 60 1007.7
20260507201856 77 228 2.0 3.0 0.00 1.25 1.25 60 1007.8
20260507201352 77 271 2.0 3.0 0.00 1.25 1.25 61 1007.4
20260507200848 77 272 1.0 1.0 0.00 1.25 1.25 61 1007.7
20260507200344 78 160 1.0 2.0 0.00 1.25 1.25 61 1007.6
20260507195841 77 135 0.0 3.0 0.00 1.25 1.25 63 1007.6
20260507195338 77 297 2.0 4.0 0.00 1.25 1.25 63 1007.9
20260507194835 76 158 0.0 1.0 0.00 1.25 1.25 64 1007.9
20260507194331 76 260 0.0 1.0 0.00 1.25 1.25 64 1008.1
20260507193828 76 89 0.0 1.0 0.00 1.25 1.25 62 1008.0
20260507193325 77 136 0.0 1.0 0.00 1.25 1.25 60 1008.3
20260507192821 76 105 1.0 1.0 0.00 1.25 1.25 62 1008.4
20260507192318 76 110 0.0 1.0 0.00 1.25 1.25 62 1008.3
20260507191814 76 156 1.0 2.0 0.00 1.25 1.25 62 1008.6
20260507191311 76 329 4.0 6.0 0.00 1.25 1.25 64 1008.6
20260507190808 76 223 2.0 2.0 0.00 1.25 1.25 65 1008.6
20260507190306 76 268 2.0 3.0 0.00 1.25 1.25 62 1008.7
20260507185805 77 209 1.0 3.0 0.00 1.25 1.25 63 1008.6
20260507185301 77 261 1.0 2.0 0.00 1.25 1.25 64 1008.7
20260507184758 77 174 0.0 1.0 0.00 1.25 1.25 66 1008.5
20260507184256 77 219 1.0 2.0 0.00 1.25 1.25 64 1008.7
20260507183753 75 267 1.0 1.0 0.00 1.25 1.25 68 1008.5
20260507183250 74 269 2.0 4.0 0.00 1.25 1.25 70 1008.7
20260507182748 74 309 2.0 3.0 0.00 1.25 1.25 68 1008.7
20260507182248 74 329 2.0 3.0 0.00 1.25 1.25 69 1008.6
20260507181745 74 297 0.0 3.0 0.00 1.25 1.25 69 1008.4
20260507181241 73 286 1.0 2.0 0.00 1.25 1.25 71 1008.5
20260507180738 74 267 1.0 2.0 0.00 1.25 1.25 72 1008.6
20260507180235 74 357 2.0 6.0 0.00 1.25 1.25 67 1008.7
20260507175730 73 294 1.0 2.0 0.00 1.25 1.25 76 1008.9
20260507175227 72 272 0.0 2.0 0.00 1.25 1.25 77 1008.9
20260507174725 72 67 1.0 2.0 0.00 1.25 1.25 77 1009.1
20260507174223 71 277 2.0 4.0 0.00 1.25 1.25 80 1009.3
20260507173720 71 313 2.0 3.0 0.00 1.25 1.25 81 1009.5
20260507173217 70 293 1.0 2.0 0.00 1.25 1.25 83 1009.3
20260507172713 69 294 2.0 3.0 0.00 1.25 1.25 85 1009.4
20260507172210 69 298 2.0 2.0 0.00 1.25 1.25 86 1009.3
20260507171710 69 6 1.0 2.0 0.00 1.25 1.25 86 1009.1
20260507171208 69 45 1.0 2.0 0.00 1.25 1.25 85 1008.8
20260507170704 69 304 0.0 0.0 0.00 1.25 1.25 89 1009.3
20260507170202 69 299 2.0 3.0 0.00 1.25 1.25 88 1009.7
20260507165657 69 301 0.0 1.0 0.00 1.25 1.25 88 1009.5
20260507165154 69 300 0.0 1.0 0.00 1.25 1.25 87 1009.4
20260507164650 69 300 1.0 2.0 0.00 1.25 1.25 88 1009.6
20260507164147 70 19 2.0 3.0 0.00 1.25 1.25 85 1009.4
20260507163644 69 330 0.0 0.0 0.00 1.25 1.25 91 1009.5
20260507163142 68 330 0.0 1.0 0.00 1.25 1.25 91 1009.8
20260507162637 67 259 0.0 2.0 0.00 1.25 1.25 93 1010.2
20260507162134 67 286 1.0 3.0 0.00 1.25 1.25 92 1010.0
20260507161630 67 270 1.0 2.0 0.00 1.25 1.25 92 1010.1
20260507161127 67 295 2.0 3.0 0.00 1.25 1.25 92 1009.8
20260507160623 67 279 1.0 6.0 0.00 1.25 1.25 91 1009.9
20260507160120 68 317 2.0 2.0 0.00 1.25 1.25 91 1009.8
20260507155615 68 266 1.0 1.0 0.00 1.25 1.25 91 1009.4
20260507155112 68 146 1.0 1.0 0.00 1.25 1.25 90 1009.6
20260507154609 69 103 0.0 1.0 0.00 1.25 1.25 90 1009.3
20260507154106 69 100 0.0 1.0 0.00 1.25 1.25 91 1008.8
20260507153603 68 100 0.0 0.0 0.00 1.25 1.25 91 1008.6
20260507153059 68 101 0.0 0.0 0.00 1.25 1.25 91 1008.6
20260507152555 68 67 0.0 0.0 0.00 1.25 1.25 93 1008.5
20260507152052 68 148 0.0 1.0 0.00 1.25 1.25 93 1008.7
20260507151548 67 149 0.0 1.0 0.00 1.25 1.25 93 1008.7
20260507151045 67 149 0.0 0.0 0.07 1.25 1.25 95 1008.9
20260507150542 66 131 0.0 0.0 0.07 1.25 1.25 95 1008.8
20260507150039 66 134 0.0 1.0 0.00 1.24 1.24 95 1009.2
20260507145540 66 285 0.0 1.0 0.00 1.24 1.24 95 1010.1
20260507145038 66 281 0.0 0.0 0.00 1.24 1.24 95 1010.3
20260507144534 66 219 1.0 1.0 0.00 1.24 1.24 95 1010.4
20260507144032 66 122 0.0 1.0 0.05 1.24 1.24 95 1010.5
20260507143529 66 88 0.0 1.0 0.05 1.24 1.24 95 1010.3
20260507143026 66 99 0.0 1.0 0.07 1.23 1.23 96 1010.5
20260507142522 66 330 0.0 0.0 0.00 1.22 1.22 96 1010.6
20260507142019 66 330 0.0 1.0 0.05 1.22 1.22 96 1010.8
20260507141515 66 330 0.0 1.0 0.05 1.22 1.22 96 1010.7
20260507141012 66 343 0.0 0.0 0.00 1.21 1.21 96 1010.2
20260507140508 66 344 0.0 0.0 0.00 1.21 1.21 96 1010.4
20260507140006 66 344 0.0 0.0 0.00 1.21 1.21 96 1010.3